Date,TemperatureHighF,TemperatureAvgF,TemperatureLowF,DewpointHighF,DewpointAvgF,DewpointLowF,HumidityHigh,HumidityAvg,HumidityLow,PressureMaxIn,PressureMinIn,WindSpeedMaxMPH,WindSpeedAvgMPH,GustSpeedMaxMPH,PrecipitationSumIn
2013-3-1,27.0,22.1,13.0,19.0,15.7,10.0,90,76,63,0.00,40.00,14,8,18,0.00
2013-3-2,31.0,16.7,2.0,18.0,10.8,0.0,93,79,49,0.00,40.00,7,3,9,0.00
2013-3-3,31.0,23.5,15.0,19.0,15.1,10.0,92,71,49,0.00,40.00,17,10,21,0.00
2013-3-4,29.0,25.0,22.0,25.0,22.9,14.0,99,92,63,0.00,40.00,24,14,30,0.00
2013-3-5,29.0,26.2,24.0,28.0,24.3,21.0,99,92,77,0.00,40.00,15,7,26,0.00
2013-3-6,27.0,19.1,0.0,21.0,15.6,-4.0,97,86,70,0.00,40.00,12,6,19,0.00
2013-3-7,29.0,12.9,-5.0,19.0,8.3,-9.0,96,82,65,0.00,40.00,15,6,21,0.00
2013-3-8,38.0,27.6,15.0,32.0,24.7,14.0,99,90,74,0.00,40.00,19,11,24,0.00
2013-3-9,36.0,34.4,33.0,36.0,34.0,32.0,99,99,99,0.00,40.00,19,12,28,0.00
2013-3-10,34.0,31.9,29.0,34.0,31.1,28.0,99,98,93,0.00,40.00,21,14,29,0.01
2013-3-11,29.0,25.6,20.0,28.0,23.1,16.0,99,91,74,0.00,40.00,18,13,27,0.01
2013-3-12,27.0,23.5,18.0,27.0,19.0,14.0,99,82,68,0.00,40.00,24,14,32,0.00
2013-3-13,29.0,18.9,11.0,18.0,13.9,9.0,93,81,53,0.00,40.00,14,8,21,0.00
2013-3-14,40.0,29.4,19.0,30.0,24.0,16.0,99,81,60,0.00,40.00,14,6,21,0.00
2013-3-15,41.0,34.2,28.0,34.0,32.6,27.0,99,94,73,0.00,40.00,12,6,16,0.00
2013-3-16,33.0,24.6,16.0,32.0,20.0,10.0,99,83,68,0.00,40.00,16,10,24,0.00
2013-3-17,31.0,21.1,11.0,27.0,14.7,5.0,90,76,65,0.00,40.00,21,13,27,0.00
2013-3-18,31.0,22.4,12.0,30.0,18.8,7.0,99,86,70,0.00,40.00,28,18,39,0.00
2013-3-19,23.0,14.1,8.0,10.0,4.6,1.0,82,66,51,0.00,40.00,24,18,35,0.00
2013-3-20,20.0,12.5,6.0,5.0,1.3,-2.0,74,61,45,0.00,40.00,23,16,33,0.00
2013-3-21,29.0,14.4,0.0,10.0,4.7,-4.0,84,66,42,0.00,40.00,10,3,14,0.00
2013-3-22,36.0,20.5,6.0,18.0,10.8,3.0,92,68,36,0.00,40.00,7,2,10,0.00
2013-3-23,36.0,25.7,14.0,23.0,17.2,12.0,97,71,48,0.00,40.00,10,4,13,0.00
2013-3-24,32.0,27.6,24.0,27.0,23.8,21.0,99,86,69,0.00,40.00,14,9,22,0.00
2013-3-25,35.0,28.9,24.0,25.0,20.2,18.0,87,70,55,0.00,40.00,16,12,25,0.00
2013-3-26,38.0,27.8,19.0,28.0,21.6,18.0,94,78,51,0.00,40.00,12,6,18,0.00
2013-3-27,42.0,31.2,20.0,28.0,24.5,19.0,99,78,48,0.00,40.00,8,2,12,0.00
2013-3-28,44.0,33.4,23.0,37.0,29.2,23.0,99,85,65,0.00,40.00,10,4,14,0.00
2013-3-29,51.0,39.5,29.0,43.0,34.6,28.0,99,83,67,0.00,40.00,14,6,18,0.00
2013-3-30,54.0,44.5,36.0,50.0,40.7,34.0,99,86,73,0.00,40.00,17,9,22,0.00
2013-3-31,40.0,33.5,26.0,36.0,26.4,16.0,99,77,48,0.00,40.00,22,15,35,0.00